QPF
0.00 0.00 0.00 0.01 0.01 0.00 0.00 0.01 0.01 0.03 0.08 0.07 0.03 0.04 0.05 0.03 0.00 0.01 0.01 0.01 0.01 0.01 0.00 0.00 0.00 0.00 0.00 0.00 0.00 0.00 0.00 0.00 0.00 0.01 0.00 0.00 0.01 0.00 0.00 0.00 0.00 0.00 0.00 0.00
0.00 0.00 0.00 0.01 0.02 0.00 0.01 0.01 0.01 0.00 0.05 0.02 0.02 0.03 0.04 0.04 0.02 0.02 0.02 0.02 0.02 0.01 0.00 0.00 0.00 0.00 0.00 0.00 0.00 0.00 0.00 0.00 0.00 0.01 0.01 0.02 0.01 0.01 0.00 0.00 0.01 0.00 0.00 0.00
0.00 0.00 0.00 0.02 0.02 0.00 0.01 0.03 0.02 0.01 0.04 0.02 0.02 0.03 0.02 0.04 0.05 0.03 0.02 0.02 0.02 0.02 0.00 0.00 0.00 0.00 0.00 0.00 0.00 0.00 0.01 0.01 0.00 0.01 0.01 0.00 0.00 0.00 0.00 0.00 0.01 0.01 0.00 0.00
0.01 0.00 0.01 0.03 0.01 0.01 0.03 0.03 0.02 0.01 0.02 0.02 0.03 0.01 0.02 0.02 0.01 0.02 0.04 0.04 0.02 0.01 0.02 0.01 0.01 0.00 0.00 0.00 0.00 0.00 0.01 0.00 0.00 0.00 0.00 0.00 0.00 0.00 0.00 0.00 0.00 0.01 0.00 0.00
0.01 0.01 0.01 0.03 0.02 0.01 0.04 0.03 0.02 0.02 0.01 0.01 0.01 0.00 0.00 0.01 0.01 0.02 0.02 0.04 0.03 0.04 0.04 0.03 0.02 0.01 0.01 0.01 0.00 0.00 0.00 0.01 0.00 0.00 0.00 0.00 0.00 0.00 0.00 0.00 0.00 0.00 0.00 0.00
0.01 0.01 0.01 0.03 0.02 0.02 0.03 0.02 0.03 0.05 0.02 0.01 0.01 0.01 0.01 0.01 0.01 0.00 0.01 0.02 0.04 0.04 0.03 0.04 0.03 0.01 0.00 0.00 0.00 0.01 0.01 0.01 0.00 0.00 0.00 0.00 0.00 0.00 0.00 0.00 0.00 0.00 0.00 0.00
0.01 0.01 0.01 0.01 0.02 0.03 0.05 0.03 0.05 0.05 0.03 0.01 0.01 0.01 0.01 0.01 0.00 0.00 0.00 0.00 0.00 0.00 0.00 0.01 0.00 0.00 0.00 0.00 0.00 0.00 0.00 0.01 0.01 0.00 0.00 0.00 0.00 0.00 0.00 0.00 0.00 0.00 0.00 0.00
0.00 0.00 0.01 0.01 0.01 0.04 0.06 0.06 0.06 0.04 0.02 0.01 0.01 0.01 0.01 0.01 0.01 0.00 0.00 0.00 0.00 0.00 0.01 0.03 0.03 0.01 0.01 0.00 0.00 0.00 0.00 0.01 0.02 0.01 0.00 0.00 0.00 0.00 0.00 0.00 0.00 0.00 0.00 0.00
0.00 0.00 0.01 0.01 0.01 0.02 0.06 0.08 0.10 0.06 0.03 0.01 0.01 0.01 0.01 0.02 0.03 0.02 0.01 0.00 0.01 0.02 0.02 0.04 0.02 0.01 0.01 0.00 0.00 0.00 0.00 0.00 0.02 0.01 0.00 0.00 0.00 0.00 0.00 0.00 0.00 0.00 0.00 0.00
0.00 0.00 0.00 0.00 0.00 0.01 0.04 0.04 0.07 0.05 0.03 0.01 0.01 0.01 0.01 0.01 0.03 0.03 0.02 0.02 0.03 0.04 0.05 0.04 0.03 0.01 0.01 0.01 0.00 0.00 0.00 0.01 0.02 0.01 0.01 0.00 0.00 0.00 0.00 0.00 0.00 0.00 0.00 0.00
0.00 0.00 0.01 0.02 0.01 0.01 0.04 0.03 0.05 0.05 0.03 0.01 0.00 0.00 0.00 0.01 0.02 0.03 0.02 0.04 0.03 0.03 0.04 0.05 0.05 0.04 0.02 0.02 0.00 0.00 0.01 0.01 0.01 0.02 0.02 0.01 0.00 0.00 0.00 0.00 0.00 0.00 0.00 0.00
0.01 0.01 0.01 0.00 0.00 0.00 0.02 0.03 0.02 0.05 0.06 0.01 0.00 0.00 0.00 0.00 0.00 0.01 0.02 0.04 0.03 0.03 0.04 0.06 0.07 0.06 0.04 0.02 0.01 0.00 0.00 0.00 0.00 0.01 0.00 0.00 0.00 0.00 0.00 0.00 0.00 0.00 0.00 0.00
0.01 0.01 0.01 0.00 0.01 0.02 0.02 0.02 0.02 0.05 0.03 0.01 0.00 0.00 0.00 0.00 0.00 0.01 0.01 0.01 0.01 0.01 0.02 0.03 0.05 0.05 0.04 0.04 0.02 0.02 0.00 0.00 0.00 0.01 0.00 0.00 0.00 0.00 0.00 0.00 0.00 0.00 0.00 0.00
0.00 0.00 0.00 0.01 0.01 0.01 0.02 0.03 0.02 0.05 0.02 0.02 0.00 0.00 0.00 0.00 0.00 0.00 0.00 0.01 0.02 0.01 0.01 0.01 0.03 0.04 0.03 0.03 0.02 0.02 0.01 0.01 0.01 0.01 0.00 0.00 0.00 0.00 0.00 0.00 0.00 0.00 0.00 0.00
0.00 0.00 0.01 0.01 0.01 0.01 0.02 0.02 0.01 0.02 0.02 0.02 0.02 0.01 0.00 0.00 0.00 0.01 0.01 0.01 0.01 0.00 0.00 0.01 0.02 0.03 0.04 0.02 0.03 0.01 0.00 0.01 0.02 0.01 0.00 0.00 0.00 0.00 0.00 0.00 0.00 0.00 0.00 0.00
0.00 0.00 0.00 0.00 0.00 0.01 0.02 0.01 0.00 0.01 0.00 0.01 0.02 0.02 0.00 0.00 0.00 0.00 0.00 0.00 0.00 0.00 0.01 0.02 0.03 0.03 0.04 0.03 0.01 0.00 0.00 0.00 0.00 0.00 0.00 0.00 0.00 0.00 0.00 0.00 0.00 0.00 0.00 0.00
0.00 0.00 0.00 0.00 0.00 0.01 0.02 0.01 0.01 0.00 0.00 0.00 0.02 0.02 0.00 0.00 0.00 0.00 0.00 0.00 0.00 0.00 0.01 0.02 0.03 0.04 0.03 0.03 0.01 0.00 0.00 0.00 0.00 0.00 0.00 0.00 0.00 0.00 0.00 0.00 0.00 0.00 0.00 0.00
0.00 0.00 0.00 0.00 0.00 0.01 0.01 0.00 0.00 0.00 0.00 0.00 0.02 0.02 0.02 0.00 0.00 0.00 0.00 0.01 0.01 0.01 0.02 0.03 0.02 0.03 0.03 0.01 0.00 0.00 0.00 0.00 0.00 0.00 0.00 0.00 0.00 0.00 0.00 0.00 0.00 0.00 0.00 0.00
0.00 0.00 0.00 0.00 0.01 0.01 0.02 0.00 0.00 0.02 0.01 0.01 0.03 0.02 0.05 0.00 0.01 0.01 0.01 0.01 0.01 0.02 0.01 0.01 0.01 0.01 0.02 0.00 0.00 0.00 0.00 0.00 0.00 0.00 0.00 0.00 0.00 0.00 0.00 0.00 0.00 0.00 0.00 0.00
0.00 0.00 0.00 0.01 0.01 0.00 0.00 0.02 0.02 0.03 0.01 0.01 0.01 0.01 0.04 0.03 0.04 0.04 0.04 0.03 0.02 0.03 0.02 0.01 0.01 0.00 0.00 0.00 0.00 0.00 0.00 0.00 0.00 0.00 0.00 0.00 0.00 0.00 0.00 0.00 0.00 0.00 0.00 0.00
0.00 0.00 0.00 0.00 0.00 0.00 0.02 0.02 0.02 0.04 0.03 0.02 0.00 0.01 0.02 0.03 0.03 0.03 0.03 0.05 0.04 0.03 0.02 0.02 0.02 0.01 0.01 0.00 0.00 0.00 0.00 0.00 0.00 0.00 0.00 0.00 0.00 0.00 0.00 0.00 0.00 0.00 0.00 0.00
0.00 0.00 0.00 0.00 0.01 0.02 0.02 0.02 0.02 0.02 0.03 0.04 0.03 0.03 0.03 0.03 0.01 0.02 0.03 0.04 0.04 0.03 0.02 0.02 0.01 0.02 0.00 0.00 0.00 0.00 0.00 0.00 0.00 0.00 0.00 0.00 0.00 0.00 0.00 0.00 0.00 0.00 0.00 0.00
0.00 0.01 0.01 0.01 0.01 0.02 0.01 0.01 0.02 0.03 0.03 0.04 0.04 0.04 0.04 0.02 0.01 0.02 0.03 0.03 0.03 0.03 0.03 0.02 0.02 0.01 0.00 0.00 0.00 0.00 0.00 0.00 0.00 0.00 0.00 0.00 0.00 0.00 0.00 0.00 0.00 0.00 0.00 0.00
0.01 0.01 0.01 0.01 0.01 0.00 0.00 0.01 0.05 0.04 0.01 0.02 0.02 0.03 0.03 0.04 0.04 0.03 0.03 0.03 0.02 0.02 0.01 0.03 0.02 0.00 0.00 0.00 0.00 0.00 0.00 0.00 0.00 0.00 0.00 0.00 0.00 0.00 0.00 0.00 0.00 0.00 0.00 0.00
0.01 0.01 0.01 0.00 0.00 0.00 0.00 0.01 0.02 0.02 0.01 0.01 0.02 0.02 0.03 0.04 0.03 0.03 0.04 0.03 0.02 0.02 0.03 0.02 0.00 0.00 0.00 0.00 0.00 0.00 0.00 0.00 0.00 0.01 0.00 0.00 0.00 0.00 0.00 0.00 0.00 0.00 0.00 0.00
0.00 0.00 0.00 0.00 0.00 0.01 0.01 0.01 0.01 0.00 0.00 0.00 0.02 0.05 0.05 0.03 0.04 0.04 0.03 0.03 0.03 0.02 0.00 0.00 0.00 0.00 0.00 0.00 0.00 0.00 0.00 0.00 0.00 0.01 0.01 0.00 0.00 0.00 0.00 0.00 0.00 0.00 0.00 0.00
0.01 0.00 0.00 0.00 0.00 0.01 0.02 0.03 0.03 0.01 0.01 0.03 0.06 0.05 0.04 0.04 0.04 0.04 0.02 0.02 0.00 0.00 0.00 0.00 0.00 0.00 0.00 0.00 0.00 0.00 0.00 0.00 0.00 0.00 0.00 0.01 0.00 0.00 0.00 0.00 0.00 0.00 0.00 0.00
MSLP
1018.04 1017.85 1017.65 1017.41 1017.22 1017.00 1016.42 1015.00 1013.74 1012.42 1012.89 1013.29 1012.90 1011.51 1010.52 1009.71 1008.60 1007.35 1006.74 1006.41 1005.90 1004.91 1003.79 1003.03 1002.66 1002.75 1003.39 1004.80 1005.20 1006.01 1005.32 1004.36 1001.24 998.67 998.56 998.93 999.28 999.84 999.98 999.05 997.64 994.67 991.14 987.71
1017.59 1017.33 1017.20 1017.10 1017.01 1016.94 1015.81 1014.92 1013.60 1012.41 1012.58 1012.47 1011.53 1010.64 1009.72 1009.45 1008.80 1008.21 1007.18 1006.21 1005.70 1005.20 1004.19 1003.34 1002.40 1002.09 1002.16 1003.24 1004.60 1005.11 1005.25 1004.69 1002.36 999.37 998.90 999.17 1000.22 1000.97 1001.08 999.84 998.19 995.74 992.79 988.14
1016.92 1016.88 1016.68 1016.68 1016.70 1016.66 1016.40 1015.13 1013.90 1012.88 1012.43 1012.09 1011.36 1010.53 1009.74 1008.77 1008.71 1007.80 1007.04 1006.30 1006.04 1005.27 1004.49 1003.83 1003.05 1002.65 1003.02 1003.48 1003.82 1004.70 1005.39 1005.07 1004.56 1002.64 1002.12 1002.60 1002.21 1002.63 1002.36 1001.78 999.92 997.32 993.71 989.40
1016.46 1016.30 1016.24 1016.20 1016.34 1016.35 1016.44 1015.22 1013.81 1012.77 1012.24 1011.92 1011.36 1010.70 1010.11 1009.10 1008.13 1007.14 1007.10 1006.39 1005.65 1005.20 1004.40 1003.55 1002.72 1002.51 1002.24 1002.35 1002.55 1003.18 1004.22 1004.74 1004.37 1003.97 1003.66 1003.21 1002.72 1002.04 1002.41 1002.14 1001.22 999.56 994.28 991.77
1015.88 1015.80 1015.64 1015.64 1015.86 1016.10 1016.12 1015.06 1014.06 1012.98 1012.32 1011.75 1011.20 1010.40 1009.65 1008.77 1007.98 1008.02 1006.88 1006.21 1005.51 1004.91 1004.49 1003.91 1003.31 1002.84 1002.62 1002.49 1002.29 1002.52 1003.12 1004.00 1003.67 1003.16 1002.94 1002.42 1001.61 1001.16 1000.94 1000.87 1000.76 999.38 996.95 994.28
1015.35 1015.23 1015.13 1015.14 1015.29 1015.60 1014.97 1014.06 1013.29 1013.34 1012.23 1011.69 1011.04 1010.21 1009.24 1008.35 1007.90 1008.15 1007.08 1006.26 1006.26 1005.82 1005.44 1004.69 1004.11 1003.69 1003.21 1002.61 1002.47 1002.69 1003.25 1003.67 1003.46 1002.34 1002.19 1001.74 1000.26 999.02 999.14 999.00 998.71 997.95 995.97 994.06
1014.67 1014.74 1014.69 1014.61 1014.70 1015.03 1014.64 1013.82 1013.62 1013.28 1011.77 1011.19 1010.27 1009.46 1008.91 1008.35 1007.69 1006.91 1006.53 1006.03 1005.45 1004.71 1004.65 1004.24 1003.68 1003.35 1002.87 1002.41 1002.09 1002.20 1002.63 1003.32 1003.62 1002.16 1001.68 1000.15 996.88 997.06 996.92 996.79 996.69 996.32 995.23 994.31
1013.99 1014.07 1014.10 1014.11 1014.09 1014.12 1014.27 1013.96 1013.70 1013.02 1011.26 1010.76 1009.77 1009.02 1008.36 1007.86 1007.51 1006.99 1005.93 1005.42 1005.00 1004.69 1004.58 1004.42 1004.00 1003.20 1002.72 1001.56 1001.42 1001.22 1001.64 1002.44 1002.67 1002.10 1000.43 998.39 995.32 995.56 994.84 994.54 994.17 994.79 994.52 994.12
1013.27 1013.41 1013.45 1013.47 1013.54 1013.50 1013.44 1013.08 1013.14 1012.76 1011.40 1009.80 1009.24 1008.62 1008.04 1007.60 1007.21 1006.82 1005.96 1005.21 1005.05 1005.12 1004.57 1004.75 1003.38 1002.04 1001.08 1000.47 1000.37 1000.12 1000.66 1001.17 1002.37 1001.64 1000.20 997.80 994.08 993.56 993.12 993.81 992.80 993.41 992.98 992.63
1012.65 1012.75 1012.79 1012.78 1012.87 1012.85 1012.76 1012.24 1012.31 1012.26 1010.42 1009.06 1008.75 1008.08 1007.58 1007.32 1007.16 1006.66 1005.93 1005.38 1005.04 1004.32 1004.29 1003.60 1002.48 1000.87 1000.20 999.13 999.05 999.66 999.80 1000.22 1000.20 999.90 999.18 996.98 993.90 993.50 993.64 993.46 993.48 993.40 993.25 992.95
1012.06 1012.13 1012.14 1012.11 1012.22 1012.30 1012.27 1011.25 1011.27 1011.50 1009.96 1008.54 1008.12 1007.56 1007.16 1006.99 1006.84 1006.53 1005.53 1006.28 1004.81 1004.83 1003.91 1002.69 1001.35 1000.00 998.83 997.89 997.38 997.39 998.42 998.65 998.75 999.00 998.29 996.76 991.93 993.42 993.42 992.92 993.18 992.98 993.37 993.14
1011.42 1011.51 1011.48 1011.55 1011.63 1011.55 1011.47 1010.74 1010.21 1010.17 1010.08 1008.14 1007.37 1006.75 1006.39 1006.04 1005.41 1005.73 1005.82 1005.62 1004.68 1003.59 1002.84 1002.00 1001.04 999.91 998.71 997.45 996.09 995.93 996.10 996.52 996.61 996.48 995.22 993.78 992.98 992.86 992.85 992.70 992.76 992.57 992.70 992.83
1010.84 1010.89 1010.92 1010.96 1010.89 1010.76 1010.66 1010.03 1009.46 1009.48 1009.05 1007.46 1005.81 1004.33 1004.14 1004.79 1004.11 1004.16 1005.08 1004.18 1003.78 1003.47 1003.07 1002.92 1001.77 1000.18 998.86 997.54 996.06 995.34 994.62 995.01 994.72 995.44 992.90 992.58 992.44 992.70 992.72 992.71 992.71 992.28 992.36 992.36
1010.25 1010.30 1010.34 1010.20 1010.06 1010.06 1009.96 1009.46 1008.94 1009.12 1008.67 1007.13 1003.21 1002.75 1002.10 1002.34 1002.38 1002.63 1003.22 1003.03 1003.16 1003.43 1003.32 1002.59 1001.35 1000.03 998.36 996.80 995.75 994.99 994.49 993.88 993.57 993.18 991.95 992.73 992.04 992.05 992.04 991.88 991.75 991.55 991.36 991.37
1009.58 1009.66 1009.58 1009.52 1009.47 1009.35 1009.17 1008.75 1008.00 1007.92 1008.50 1005.76 1003.46 1002.32 1001.68 1001.12 1001.55 1001.77 1001.91 1002.45 1002.79 1003.12 1002.93 1001.98 1000.43 999.13 998.30 996.68 995.78 994.22 993.88 993.28 993.04 992.33 991.83 992.02 991.45 991.09 990.98 990.98 990.72 990.71 990.09 990.35
1008.96 1008.93 1008.90 1008.85 1008.77 1008.73 1008.87 1007.51 1006.47 1006.68 1006.47 1006.24 1004.01 1000.78 1000.52 1000.91 1001.63 1002.03 1002.03 1002.44 1002.83 1002.82 1001.99 1000.76 999.28 998.36 998.08 996.15 994.17 993.12 992.97 992.91 992.39 991.52 991.51 991.43 991.29 991.07 990.81 990.77 990.54 990.19 989.79 989.60
1008.25 1008.15 1008.03 1007.94 1007.88 1007.97 1007.91 1005.90 1005.48 1006.09 1006.50 1005.75 1003.33 1000.36 1000.02 1000.85 1001.52 1001.75 1001.99 1002.24 1002.21 1002.10 1001.13 999.82 998.64 997.39 997.13 995.40 993.51 992.93 992.51 991.94 991.59 991.43 991.53 991.30 991.00 990.44 990.40 990.36 990.26 990.11 989.59 989.16
1007.49 1007.30 1007.09 1006.91 1006.77 1006.70 1006.10 1004.88 1004.72 1005.48 1005.80 1004.96 1002.48 999.99 999.91 1000.46 1000.57 1000.58 1000.81 1001.10 1001.15 1000.67 999.63 998.28 997.18 996.46 996.07 994.09 992.74 992.24 991.78 991.47 991.39 991.38 991.49 991.20 990.76 990.44 990.02 989.85 989.56 989.19 988.72 988.35
1006.73 1006.41 1006.01 1005.65 1005.54 1005.16 1004.12 1004.29 1004.48 1004.70 1005.00 1003.49 1001.49 999.51 998.82 999.66 999.39 999.56 999.98 999.95 999.47 998.78 998.07 996.97 996.49 995.19 994.01 992.63 992.23 992.11 991.96 992.16 992.20 992.21 992.07 991.60 991.05 990.41 989.78 989.28 988.80 988.24 987.59 987.34
1005.96 1005.44 1004.98 1004.68 1004.10 1004.06 1004.07 1003.83 1003.78 1003.48 1003.16 1002.48 1000.72 999.06 998.24 998.76 998.27 998.47 998.86 998.71 997.87 996.91 995.91 996.06 995.66 994.14 993.12 992.49 992.74 992.69 992.91 992.70 992.60 992.35 992.32 992.10 991.43 991.16 990.51 989.50 988.44 987.35 986.70 986.53
1004.65 1004.60 1004.49 1003.95 1004.01 1003.56 1003.19 1002.60 1002.11 1001.05 1000.66 999.79 998.41 997.41 996.96 997.92 997.89 998.06 998.32 997.43 996.81 995.86 994.59 994.76 993.94 993.06 992.83 993.45 993.44 993.57 993.39 993.22 993.07 992.85 992.63 992.35 991.60 990.83 990.07 989.05 988.36 987.71 986.88 985.74
1005.40 1005.29 1004.55 1004.34 1003.30 1002.80 1002.07 1000.64 999.61 998.76 997.52 997.12 997.03 996.98 996.89 997.44 997.53 997.58 997.25 996.82 996.25 995.15 995.23 994.75 993.62 994.07 994.14 994.20 994.35 994.29 994.01 993.65 993.27 993.06 992.52 991.98 991.22 990.44 989.60 988.76 987.78 986.97 986.29 985.79
1004.36 1004.74 1004.00 1003.26 1002.02 1001.12 999.85 998.33 997.49 996.88 996.47 996.67 996.67 996.87 996.94 997.02 997.14 997.32 996.95 996.30 995.35 995.04 994.97 994.07 993.61 994.45 994.86 995.02 995.02 994.63 994.48 994.13 993.68 992.99 992.36 991.69 990.75 989.87 988.88 987.01 986.16 985.92 985.74 985.19
1003.98 1003.06 1002.15 1001.21 999.83 998.92 997.38 996.68 996.20 996.50 996.34 996.31 996.51 996.63 996.68 996.54 996.85 996.54 996.35 995.42 995.17 994.79 994.32 993.87 994.79 995.37 995.74 995.71 995.49 995.19 994.66 994.21 993.61 992.90 992.19 991.35 990.58 989.40 988.23 986.76 985.88 985.79 985.79 985.79
1003.38 1002.18 1000.59 998.80 998.21 997.51 997.28 997.04 996.86 996.67 996.72 996.94 997.17 996.96 996.62 996.24 996.28 995.97 995.68 995.55 994.96 994.35 994.58 995.36 995.88 996.23 996.20 995.98 995.74 995.47 994.97 994.35 993.65 993.01 992.23 991.38 990.59 989.48 988.49 987.72 987.13 986.82 986.69 986.62
1002.42 1000.85 999.15 998.26 997.87 997.56 997.40 997.25 997.18 997.38 997.62 997.74 997.60 996.76 995.97 995.85 995.39 995.18 995.17 994.98 995.08 995.91 996.54 996.95 996.87 996.78 996.65 996.34 995.99 995.64 995.26 994.71 993.99 993.30 992.58 991.82 990.97 990.22 989.57 988.94 988.36 988.03 987.79 987.56
1000.56 999.06 998.54 998.15 997.63 997.39 997.20 997.23 997.31 997.76 997.72 997.35 996.59 996.18 995.35 995.04 994.88 994.80 995.63 996.39 997.13 997.58 997.70 997.64 997.69 997.54 997.09 996.64 996.25 995.90 995.44 994.83 994.20 993.60 993.01 992.36 991.72 991.06 990.41 989.87 989.68 989.31 988.99 988.69
Thickness
5375 5369 5364 5360 5357 5353 5352 5363 5357 5373 5364 5355 5352 5370 5382 5388 5400 5420 5421 5422 5423 5435 5452 5457 5462 5464 5465 5448 5455 5437 5450 5464 5524 5556 5573 5574 5574 5573 5563 5574 5582 5618 5657 5679
5370 5366 5360 5354 5350 5346 5352 5351 5360 5367 5361 5354 5366 5381 5388 5382 5386 5392 5404 5416 5427 5434 5444 5450 5467 5470 5471 5457 5446 5441 5442 5455 5501 5558 5562 5559 5548 5539 5522 5553 5590 5600 5618 5672
5368 5361 5357 5351 5345 5340 5338 5343 5346 5352 5356 5360 5365 5370 5375 5385 5385 5394 5404 5411 5416 5425 5430 5445 5448 5450 5448 5443 5445 5437 5434 5440 5454 5495 5490 5478 5500 5496 5499 5510 5557 5582 5617 5674
5365 5360 5353 5347 5340 5334 5330 5336 5343 5352 5352 5350 5357 5361 5362 5370 5380 5400 5398 5398 5415 5419 5423 5436 5444 5449 5452 5453 5452 5452 5446 5438 5450 5451 5463 5484 5497 5503 5498 5498 5512 5531 5627 5645
5362 5356 5351 5344 5337 5328 5324 5326 5329 5343 5346 5352 5351 5355 5357 5365 5380 5372 5388 5396 5410 5420 5419 5429 5426 5437 5436 5436 5450 5452 5455 5442 5456 5465 5479 5490 5496 5510 5519 5524 5512 5529 5567 5594
5358 5353 5348 5341 5333 5325 5326 5333 5336 5327 5339 5339 5339 5344 5353 5362 5371 5362 5379 5389 5380 5378 5392 5409 5418 5425 5432 5441 5441 5442 5438 5437 5447 5467 5479 5474 5477 5522 5524 5528 5536 5550 5565 5603
5356 5350 5344 5338 5330 5322 5322 5326 5323 5318 5333 5336 5338 5344 5346 5347 5357 5363 5373 5382 5385 5402 5404 5409 5418 5425 5433 5442 5449 5451 5438 5433 5433 5456 5458 5447 5535 5529 5530 5537 5546 5556 5572 5585
5354 5347 5341 5335 5328 5323 5318 5316 5311 5312 5326 5331 5333 5333 5338 5342 5346 5352 5369 5378 5387 5395 5397 5393 5391 5408 5409 5428 5442 5455 5460 5443 5431 5435 5462 5487 5532 5529 5544 5543 5555 5557 5559 5571
5353 5345 5339 5333 5326 5321 5318 5316 5310 5304 5314 5328 5328 5328 5333 5332 5337 5344 5359 5375 5381 5380 5386 5377 5389 5414 5436 5438 5437 5459 5458 5457 5426 5444 5448 5467 5543 5548 5541 5536 5531 5559 5572 5579
5350 5343 5336 5330 5324 5319 5316 5316 5309 5301 5316 5329 5325 5324 5327 5334 5334 5337 5353 5363 5368 5384 5376 5386 5402 5424 5444 5450 5441 5436 5443 5440 5433 5448 5445 5478 5530 5534 5527 5499 5515 5542 5551 5557
5346 5340 5334 5328 5322 5316 5312 5318 5310 5301 5310 5325 5326 5329 5330 5333 5335 5334 5354 5341 5362 5361 5373 5394 5416 5427 5448 5456 5466 5462 5431 5433 5436 5437 5431 5444 5543 5508 5492 5512 5512 5528 5521 5532
5343 5337 5331 5325 5319 5315 5311 5313 5310 5306 5302 5319 5327 5332 5335 5340 5346 5340 5339 5342 5357 5372 5381 5398 5409 5416 5431 5449 5457 5471 5457 5456 5453 5455 5467 5496 5505 5497 5497 5498 5500 5513 5505 5514
5340 5334 5328 5322 5317 5314 5311 5312 5309 5304 5304 5322 5336 5346 5350 5345 5351 5351 5338 5355 5365 5369 5379 5374 5386 5395 5422 5422 5444 5457 5468 5465 5463 5450 5489 5491 5492 5482 5482 5483 5483 5496 5491 5495
5337 5331 5325 5320 5317 5312 5309 5309 5307 5301 5303 5314 5354 5359 5365 5362 5361 5359 5355 5360 5364 5357 5360 5364 5380 5391 5421 5432 5444 5449 5456 5463 5462 5461 5483 5470 5477 5475 5474 5477 5478 5482 5491 5490
5334 5328 5324 5319 5315 5311 5309 5308 5309 5307 5301 5332 5350 5357 5364 5368 5363 5362 5364 5360 5357 5352 5354 5363 5380 5402 5406 5425 5430 5440 5451 5452 5448 5452 5472 5461 5467 5473 5473 5470 5473 5473 5492 5485
5332 5327 5322 5318 5313 5309 5305 5310 5317 5314 5314 5314 5335 5373 5370 5363 5356 5352 5355 5352 5346 5345 5356 5367 5388 5401 5392 5406 5432 5452 5450 5448 5452 5460 5460 5456 5457 5458 5461 5457 5462 5466 5470 5472
5330 5326 5322 5318 5314 5310 5306 5324 5321 5315 5311 5318 5343 5372 5372 5359 5350 5348 5345 5342 5341 5344 5355 5367 5382 5398 5393 5408 5422 5443 5442 5445 5448 5450 5444 5443 5449 5450 5452 5450 5451 5451 5457 5462
5328 5325 5323 5320 5316 5314 5317 5323 5321 5314 5311 5317 5346 5373 5370 5359 5356 5358 5355 5348 5346 5351 5364 5379 5389 5397 5389 5407 5435 5437 5440 5440 5439 5439 5433 5434 5439 5440 5443 5443 5444 5445 5449 5453
5327 5325 5325 5324 5321 5319 5329 5321 5317 5315 5314 5331 5348 5372 5378 5365 5368 5366 5358 5358 5359 5368 5366 5379 5384 5398 5402 5426 5429 5427 5427 5420 5417 5415 5414 5418 5420 5423 5430 5435 5437 5439 5445 5448
5325 5327 5327 5323 5329 5323 5321 5322 5317 5316 5318 5320 5341 5373 5371 5368 5376 5370 5364 5360 5369 5373 5389 5383 5377 5398 5416 5421 5413 5412 5405 5405 5403 5398 5392 5393 5396 5395 5401 5414 5426 5437 5442 5444
5331 5327 5323 5326 5320 5324 5321 5322 5326 5339 5337 5348 5363 5377 5380 5367 5366 5361 5360 5369 5374 5376 5399 5389 5400 5407 5409 5398 5397 5392 5390 5387 5386 5385 5381 5381 5385 5388 5392 5402 5410 5416 5425 5441
5315 5315 5317 5314 5319 5319 5324 5337 5350 5354 5366 5370 5367 5367 5371 5364 5366 5362 5367 5366 5372 5377 5380 5380 5396 5384 5385 5382 5376 5373 5374 5373 5373 5370 5369 5372 5375 5379 5382 5387 5396 5407 5417 5419
5316 5309 5311 5316 5327 5325 5336 5349 5361 5362 5371 5368 5367 5360 5363 5362 5363 5356 5360 5358 5372 5384 5372 5387 5397 5376 5371 5367 5362 5363 5361 5359 5357 5359 5361 5361 5368 5372 5373 5392 5403 5405 5408 5415
5309 5316 5320 5328 5337 5343 5364 5372 5373 5366 5367 5367 5364 5360 5359 5362 5353 5361 5353 5374 5376 5373 5380 5393 5368 5361 5354 5351 5351 5349 5349 5350 5350 5352 5354 5357 5359 5365 5371 5383 5392 5391 5390 5387
5303 5316 5322 5347 5352 5357 5355 5356 5356 5358 5356 5350 5344 5349 5356 5358 5352 5362 5366 5357 5368 5385 5380 5362 5354 5345 5344 5343 5341 5339 5339 5341 5343 5344 5346 5350 5350 5357 5362 5364 5366 5369 5369 5371
5304 5319 5333 5343 5342 5341 5341 5343 5342 5341 5334 5331 5333 5345 5352 5347 5362 5365 5363 5375 5375 5354 5343 5335 5337 5336 5334 5334 5334 5333 5332 5333 5337 5339 5341 5341 5342 5346 5348 5351 5355 5358 5360 5363
5309 5323 5329 5330 5336 5335 5336 5336 5335 5330 5329 5331 5348 5341 5355 5365 5364 5370 5357 5345 5333 5325 5323 5325 5322 5321 5325 5328 5327 5325 5326 5329 5332 5334 5335 5335 5335 5337 5342 5345 5345 5346 5348 5350